Regional Weather Roundup
Issued by NWS

Current Version | Previous Version | Text Only | Print | Product List | Glossary On
Versions: 1 2 3 4 5 6 7 8 9 10 11 12 13 14 15 16 17 18 19 20 21 22 23 24 25 26 27 28
000
ASUS46 KSEW 201610
RWRWA

WASHINGTON REGIONAL WEATHER ROUNDUP
NATIONAL WEATHER SERVICE SEATTLE WA
900 AM PDT SUN APR 20 2014

NOTE:"FAIR" INDICATES FEW OR NO CLOUDS BELOW 12,000 FEET WITH NO
SIGNIFICANT WEATHER AND/OR OBSTRUCTIONS TO VISIBILITY.

WAZ505-507>509-201700-
SEATTLE, TACOMA, EVERETT, AND VICINITY

CITY           SKY/WX    TMP DP  RH WIND       PRES   REMARKS
EVERETT        CLOUDY    48  38  68 S12       30.29R
BOEING FIELD   MOSUNNY   51  38  60 SE9       30.30R
RENTON         CLOUDY    48  42  80 S5        30.30S
SEATAC AIRPORT PTSUNNY   49  37  63 SE9       30.30R
JBLM-MCCHORD   SUNNY     49  42  75 SE6       30.29S
PUYALLUP         N/A     48  39  71 CALM      30.30R
JBLM-FT LEWIS  MOSUNNY   48  41  77 SE5       30.29S
TACOMA NARROWS CLOUDY    47  40  76 S6        30.29S
$$

WAZ001-503-506-510-514-515-201700-
NORTH INTERIOR

CITY           SKY/WX    TMP DP  RH WIND       PRES   REMARKS
BELLINGHAM     CLOUDY    49  41  74 CALM      30.28R
FRIDAY HARBOR  CLOUDY    48  42  80 E7        30.29R
EASTSOUND      MOSUNNY   50  41  71 S9        30.26R
PORT ANGELES   PTSUNNY   49  41  74 CALM      30.25R
NAS WHIDBEY    PTSUNNY   52  43  71 SE14G23   30.28R
BURLINGTON     MOSUNNY   52  43  71 E10       30.30R
$$

WAZ020-022-039-040-504-511-512-201700-
SOUTHWEST INTERIOR

CITY           SKY/WX    TMP DP  RH WIND       PRES   REMARKS
SHELTON        CLOUDY    45  44  97 CALM      30.26S
OLYMPIA        MOSUNNY   47  42  83 S5        30.29S
CHEHALIS       FAIR      46  45  93 S6        30.30F FOG
KELSO          PTSUNNY   46  43  87 SE5       30.33S
VANCOUVER      MOSUNNY   49  44  83 CALM      30.30F
SCAPPOOSE, OR  CLOUDY    47  44  90 CALM      30.30S
PORTLAND, OR   PTSUNNY   50  44  80 E3        30.30F
$$

WAZ021-516-517-201700-
WASHINGTON COAST

CITY           SKY/WX    TMP DP  RH WIND       PRES   REMARKS
FORKS          CLOUDY    48  46  93 SE6       30.22F FOG
HOQUIAM        CLOUDY    48  45  89 E10       30.25F
ASTORIA, OR    CLOUDY    49  43  80 E5        30.26S
$$

WAZ019-023-024-040-518-519-201700-
CASCADE MOUNTAINS AND COLUMBIA GORGE

CITY           SKY/WX    TMP DP  RH WIND       PRES   REMARKS
STAMPEDE PASS  NOT AVBL
TROUTDALE, OR  MOSUNNY   51  45  79 VRB5      30.29F
THE DALLES, OR MOSUNNY   46  37  71 E5        30.31
$$

WAZ026-027-041>044-520-521-201700-
EAST SLOPES

CITY           SKY/WX    TMP DP  RH WIND       PRES   REMARKS
OMAK           PTSUNNY   50  30  46 S6        30.22R
WENATCHEE      MOSUNNY   50  29  44 NW17      30.24S
ELLENSBURG     MOSUNNY   49  31  49 NW14      30.25F
YAKIMA         PTSUNNY   49  32  52 CALM      30.28F
$$

WAZ028-034-035-201700-
COLUMBIA BASIN

CITY           SKY/WX    TMP DP  RH WIND       PRES   REMARKS
EPHRATA        PTSUNNY   50  28  42 W3        30.24R
MOSES LAKE     MOSUNNY   50  30  46 SW5       30.27R
HANFORD        NOT AVBL
PASCO          MOSUNNY   53  35  50 W5        30.32R
HERMISTON, OR  CLOUDY    53  37  54 SW9       30.31S
$$

WAZ036>038-201700-
NORTHEAST WASHINGTON

CITY           SKY/WX    TMP DP  RH WIND       PRES   REMARKS
SPOKANE GEIGER PTSUNNY   43  33  68 S10       30.25R
SPOKANE FELTS  MOSUNNY   46  35  65 SW10      30.28R
FAIRCHILD AFB  SUNNY     42  35  74 S13       30.25R
COEURDALENE,ID CLOUDY    45  34  65 S13       30.27S
DEER PARK      SUNNY     44  33  65 S10       30.25S
$$

WAZ029>033-201700-
SOUTHEAST WASHINGTON

CITY           SKY/WX    TMP DP  RH WIND       PRES   REMARKS
PULLMAN        MOSUNNY   46  32  58 W13       30.30R
LEWISTON, ID   SUNNY     52  28  39 VRB3      30.29S
WALLA WALLA    MOSUNNY   52  35  52 SW12      30.31S
PENDLETON, OR  CLOUDY    48  35  60 S7        30.30S
$$



USA.gov is the U.S. government's official web portal to all federal, state and local government web resources and services.